Cloud_Cover
100 100 100 100 100 100 100 100 100 100 100 100 100 100 100 100 100 100 96 100 93 55 5 5 9 6 24 5 5 5 4 3 0 0 0 0 1 3 5 5 5 13 35
100 100 100 100 100 100 100 100 100 100 100 100 100 100 100 100 100 100 100 12 55 47 5 5 6 15 36 3 0 5 2 2 0 0 0 5 5 4 5 31 62 33 14
100 100 100 100 100 100 100 100 100 100 100 100 100 100 100 100 100 100 100 79 80 28 5 5 8 10 73 42 5 5 3 0 0 5 21 5 5 33 78 96 67 39 5
100 100 100 100 100 100 100 100 100 100 100 100 100 100 100 100 100 100 100 100 98 38 5 47 23 29 6 30 5 5 4 1 21 45 29 8 73 96 98 92 68 75 5
100 100 100 100 100 100 100 100 100 100 100 100 100 100 100 100 100 100 100 100 56 69 30 99 100 96 5 4 5 39 5 28 51 70 83 99 97 90 82 61 52 96 64
100 100 100 100 100 100 100 100 100 100 100 100 100 100 100 100 100 100 100 100 83 6 5 100 88 80 5 17 65 29 18 24 54 96 100 100 100 100 88 81 71 58 59
100 100 100 100 100 100 100 100 100 100 100 100 100 100 100 100 100 93 100 91 79 97 67 50 89 44 5 51 91 16 51 80 91 100 100 100 100 83 81 89 48 69 55
100 100 100 100 100 100 100 100 100 100 100 100 100 100 100 100 100 100 100 100 91 98 87 97 95 63 38 94 47 36 72 89 100 100 100 100 100 99 89 99 86 93 19
100 100 100 100 100 100 100 100 100 100 100 100 100 100 100 100 90 100 100 100 100 100 100 100 90 100 96 38 20 96 97 100 100 100 100 100 100 100 100 100 100 66 63
100 100 100 100 100 100 100 100 100 100 100 100 100 100 87 61 99 100 100 100 100 100 100 100 100 100 98 99 83 100 90 100 100 100 100 100 100 100 100 100 100 100 100
100 100 100 100 100 100 100 100 100 100 100 100 99 100 97 97 100 100 100 100 100 100 100 100 100 100 100 100 68 73 98 100 100 100 100 100 100 100 100 100 100 100 84
100 100 100 100 100 100 100 100 100 84 98 100 100 100 100 100 100 87 85 100 100 100 100 100 100 100 100 100 90 85 97 100 100 100 100 100 100 100 100 100 100 95 29
100 100 100 100 100 100 100 100 100 100 100 100 100 100 100 99 78 52 95 100 100 99 93 100 100 100 100 100 100 100 100 84 100 100 100 100 100 100 100 100 73 61 9
100 100 100 100 100 100 100 100 100 100 97 100 80 100 86 100 99 100 99 90 100 100 100 100 100 100 100 100 100 100 100 100 100 100 100 100 100 100 100 100 72 64 75
100 100 100 100 100 100 100 100 100 100 96 55 95 85 73 100 90 98 100 100 100 100 100 100 100 100 100 100 100 100 100 100 100 100 100 100 100 100 100 100 95 39 13
100 100 100 100 100 100 100 100 100 100 90 47 39 84 84 92 92 98 100 100 100 100 100 100 100 100 100 100 100 100 100 100 100 100 100 100 100 100 100 100 100 93 12
100 100 100 100 100 100 100 100 100 94 35 17 89 54 90 58 87 91 100 100 100 100 100 100 100 100 100 100 100 100 100 100 100 100 100 100 100 100 100 98 74 60 39
100 100 100 100 100 100 100 99 86 98 97 100 100 65 78 86 82 99 100 100 100 100 100 100 100 100 100 100 100 100 100 100 100 100 100 100 100 98 83 78 51 45 34
100 100 100 100 100 99 100 100 84 100 100 100 100 100 98 85 99 100 100 100 100 100 100 100 100 100 100 100 100 100 100 100 100 100 100 96 74 61 88 75 55 28 10
100 100 100 100 99 99 100 100 100 100 99 100 99 99 100 97 100 100 100 100 100 100 100 100 95 93 98 100 100 100 98 98 98 60 69 68 98 55 100 100 100 94 14
100 100 100 100 95 100 100 100 84 81 68 84 97 100 100 100 100 100 100 100 100 99 96 89 72 73 73 78 74 73 76 89 68 60 77 85 97 100 100 100 100 100 76
100 100 100 100 99 93 91 87 88 44 21 42 84 98 98 86 100 100 91 100 92 96 95 92 96 92 99 100 90 92 79 92 98 97 100 100 100 100 100 100 100 100 99
100 100 100 100 100 100 99 100 100 88 100 100 100 99 100 100 100 100 99 100 100 100 100 100 100 100 86 94 87 38 18 40 87 99 100 100 100 100 100 100 100 100 99
100 99 99 100 100 100 100 100 100 99 95 100 97 100 100 100 100 100 100 100 100 100 100 96 87 78 82 84 85 85 85 87 100 100 100 100 100 100 100 100 100 99 23
100 100 100 100 100 100 100 98 100 100 100 100 74 68 87 100 100 100 100 100 100 100 96 93 91 88 78 92 95 100 100 100 99 100 100 100 100 100 100 98 86 69 29
100 100 100 100 100 99 93 91 94 96 100 99 71 75 55 67 70 86 92 86 90 97 98 100 100 100 100 100 100 100 100 100 88 82 90 99 95 95 81 57 27 61 68